Regional Weather Roundup
Issued by NWS

Home | Current Version | Previous Version | Graphics & Text | Print | Product List | Glossary On
Versions: 1 2 3 4 5 6 7 8 9 10 11 12 13 14
000
ASUS45 KTFX 151110
RWRMT
MONTANA REGIONAL WEATHER ROUNDUP
NATIONAL WEATHER SERVICE GREAT FALLS MT
400 AM MST SUN JAN 15 2017

NOTE: "FAIR" INDICATES FEW OR NO CLOUDS BELOW 12000 FEET WITH NO
SIGNIFICANT WEATHER AND/OR OBSTRUCTIONS TO VISIBILITY.

MTZ001>007-043-151200-
WEST OF THE DIVIDE

CITY           SKY/WX    TMP DP  RH WIND       PRES   REMARKS
KALISPELL      CLOUDY    15  11  83 CALM      30.36F
MISSOULA       PTCLDY    -5  -8  87 E6        30.40S FOG     WCI -18
BUTTE          CLOUDY    -7 -12  79 CALM      30.21F
MULLAN PASS    PTCLDY    23   2  40 W6        30.15F WCI  16
ANACONDA         N/A      1  -4  78 E5        30.22F
DEER LODGE       N/A     -4  -9  77 N3        30.28F
HAMILTON         N/A      0  -4  85 CALM      30.32F
RONAN            N/A      1  -5  76 MISG      30.36R VSB 0
$$

MTZ008-052>055-151200-
SOUTHWEST MONTANA

CITY           SKY/WX    TMP DP  RH WIND       PRES   REMARKS
BOZEMAN        CLOUDY    -5  -9  83 W3        30.24F
DILLON         CLOUDY     6  -8  52 SW12      30.21F WCI  -9
W YELLOWSTONE  HAZE     -22 -27  76 CALM      30.24S VSB 1/2
ENNIS          CLEAR     14   0  52 SE6       30.23F WCI   5
TWIN BRIDGES     N/A      0 -13  54 E6        30.17F WCI -11
$$

MTZ009-010-012-014-046-048-049-054-151200-
EAST SLOPES AND CENTRAL MONTANA

CITY           SKY/WX    TMP DP  RH WIND       PRES   REMARKS
CUT BANK       CLEAR     30  12  47 W29       29.97F WCI  15
GREAT FALLS    CLOUDY    27  10  49 SW22      30.06F WCI  13
MALMSTROM AFB  CLOUDY    27  12  54 SW16      30.07F WCI  14
HELENA         CLOUDY    -7 -11  83 CALM      30.27S FOG
AUGUSTA          N/A     22   9  58 SE10      30.04S WCI  11
BOWMANS CRNR     N/A     18   5  57 S28       30.06S WCI  -1
CHOTEAU          N/A     32  10  40 SW9       30.04F WCI  24
CONRAD           N/A      9   1  69 S3        30.03S
FAIRFIELD        N/A     21   8  57 S20       30.04S WCI   6
POWER            N/A     21   9  60 SW15      30.04F WCI   7
RAYNESFORD       N/A     34   9  35 S23G29    30.04F WCI  22
ULM              N/A     19   8  60 MISG      30.09F
$$

MTZ011-013-016-021-045-047-050-051-151200-
NORTH CENTRAL MONTANA

CITY           SKY/WX    TMP DP  RH WIND       PRES   REMARKS
HAVRE          CLEAR      9   3  77 W8        30.05S WCI  -3
LEWISTOWN      CLOUDY    16   4  59 SE9       30.06F WCI   4
N BAR RANCH      N/A     23   7  50 VRB7      30.07S WCI  15
CHINOOK          N/A     -6 -11  77 CALM      30.08S
DENTON           N/A     18   8  64 S15       30.02F WCI   3
FORT BENTON      N/A     25  10  54 MISG      30.07F
GEYSER           N/A     28  10  48 SW16      30.03F WCI  15
GRASS RANGE      N/A     26   8  46 W10       30.01F WCI  16
JUDITH GAP     MOCLDY    23   7  50 W14       30.05F WCI  11
ROY              N/A     30  10  43 MISG      30.03F
STANFORD         N/A     25  11  54 SW7       30.04S WCI  18
WINIFRED         N/A     31  10  42 SW13      30.03F WCI  21
$$

MTZ017>020-022>027-061-062-151200-
NORTHEAST MONTANA

CITY           SKY/WX    TMP DP  RH WIND       PRES   REMARKS
GLASGOW        CLOUDY    -8 -12  83 N3        30.09S
JORDAN           N/A     -6 -11  79 W3        30.08F
SIDNEY         CLOUDY    -1  -6  79 S9        30.13F WCI -16
WOLF POINT     CLOUDY   -11 -17  75 W3        30.12F
PLENTYWOOD       N/A      0  -8  71 E9        30.06S WCI -16
POPLAR           N/A     -4  -9  77 W3        30.12F
SCOBEY           N/A      2  -9  60 SE1       30.02F
$$

MTZ028>42-056>058-151200-
SOUTHCENTRAL AND SOUTHEAST MONTANA

CITY           SKY/WX    TMP DP  RH WIND       PRES   REMARKS
BAKER          CLOUDY    -6 -11  79 CALM      30.13F
BILLINGS       CLOUDY    17   4  56 SW17      30.12S WCI   1
LIVINGSTON     CLOUDY    16   3  56 NW20G25   30.15F WCI  -1
MILES CITY     CLOUDY    -1  -6  79 S9        30.14F WCI -16
BIG TIMBER     CLEAR     25   9  50 W26G36    30.11S WCI   9
EKALAKA          N/A     20  -4  34 SE3       30.07F
FORSYTH          N/A      3   0  85 NW5       30.13S
HARLOWTON      MOCLDY    26  10  49 W15       30.08S WCI  14
LAUREL           N/A     12  -1  56 SW10      30.09S WCI  -1
$$

REGIONAL REPORTS...DAKOTAS

CITY           SKY/WX    TMP DP  RH WIND       PRES   REMARKS
WILLISTON      CLOUDY    -2  -6  83 S5        30.12F
MINOT          CLOUDY    12   3  67 SW20      30.08F WCI  -6
DICKINSON      CLEAR     12   2  64 SW9       30.10F WCI   0
BEACH            N/A     18   5  57 SW16      30.13F WCI   3
CROSBY           N/A      1  -2  85 SW18      30.08S WCI -19
TIOGA            N/A      5   0  78 SW6       30.09F WCI  -6
WATFORD CITY     N/A      1  -4  78 SW5       30.12F
BISMARCK       CLOUDY    -9 -15  75 N3        30.21F
GRAND FORKS    CLOUDY     0  -6  76 S16       30.19F WCI -20
FARGO          CLOUDY     7   1  76 S9        30.26F WCI  -7
BUFFALO SD       N/A     15   7  70 S5        30.06F
RAPID CITY     CLOUDY    16   1  51 W6        30.15F WCI   7
$$

REGIONAL REPORTS...WYOMING/IDAHO/WASHINGTON

CITY           SKY/WX    TMP DP  RH WIND       PRES   REMARKS
GILLETTE       CLOUDY    13   6  74 S7        30.13S WCI   3
SHERIDAN       CLOUDY     0  -8  69 VRB5      30.11F
BUFFALO WY     CLOUDY    25  -4  28 SW10      30.11F WCI  15
CODY           CLOUDY    10   1  67 S7        30.12F WCI  -1
YELLOWSTONE LA   N/A    -19 -24  77 CALM      30.20F
IDAHO FALLS    CLOUDY    -3  -6  87 N5        30.24F
SALMON         CLOUDY   -17 -26  63 CALM      30.50S
BOISE          CLOUDY    12  10  92 NW5       30.39S FOG
SPOKANE        FOG       -1  -4  87 W5        30.37R VSB 1/2
$$

REGIONAL REPORTS...ALBERTA

CITY           SKY/WX    TMP DP  RH WIND       PRES   REMARKS
EDMONTON       PTCLDY    32  18  55 SW6       29.80F WCI  26
CALGARY        MOCLDY    43  16  33 W17G29    29.89R
LETHBRIDGE     CLOUDY    30  19  64 SW14G21   29.94F WCI  20
MEDICINE HAT   CLEAR     16  10  79 SW15      29.96F WCI   1
WATERTON GATE    N/A     28   9  43 SW35G46     N/A  WCI  12
CARDSTON         N/A     39  10  30 W13G20      N/A  WCI  32
MILK RIVER       N/A     25  14  63 W3          N/A
$$

REGIONAL REPORTS...SASKATCHEWAN

CITY           SKY/WX    TMP DP  RH WIND       PRES   REMARKS
SWIFT CURRENT  PTCLDY    18  10  73 W15       29.92F WCI   3
REGINA         MOCLDY     3   0  85 SE6       29.97F WCI  -8
SASKATOON      CLEAR     16   9  73 SW9       29.89S WCI   4
CYPRESS HILLS    N/A     25  10  54 S1          N/A
VAL MARIE        N/A     -9 -15  77 E1          N/A
ROCKGLEN         N/A     16   7  67 W15         N/A  WCI   1
$$




USA.gov is the U.S. government's official web portal to all federal, state and local government web resources and services.